Regional Weather Roundup
Issued by NWS Spokane, WA

Home | Current Version | Previous Version | Text Only | Print | Product List | Glossary On
Versions: 1 2 3 4 5 6 7 8 9 10 11 12 13 14 15 16 17 18 19 20 21 22 23 24 25 26 27 28 29 30 31 32 33 34 35 36 37 38 39 40 41 42 43 44 45 46 47 48 49 50
583
NZUS01 KOTX 271110
RWROTX
EASTERN WASHINGTON/NORTHERN IDAHO ROUNDUP
NATIONAL WEATHER SERVICE, SPOKANE WA
400 AM PDT WED JUL 27 2016

Note: "fair" indicated few or no clouds below 12,000 feet with no
significant weather and/or obstructions to visibility.

...NORTHEAST WASHINGTON AND NORTHERN IDAHO PANHANDLE...

CITY           SKY/WX    TMP DP  RH WIND       PRES   REMARKS
SPOKANE INTL   PTCLDY    65  53  65 NE6       30.04R
SPOKANE DOWNTO CLEAR     62  56  80 CALM      30.03S
COEUR D ALENE  CLEAR     61  54  77 NE9       30.02S
DEER PARK      PTCLDY    60  53  77 MISG      30.05R
SANDPOINT      PTCLDY    55  54  94 CALM      30.06S
BONNERS FERRY    N/A     55  55 100 CALM      30.10R

...SOUTHEAST WASHINGTON AND SOUTHERN IDAHO PANHANDLE...

CITY           SKY/WX    TMP DP  RH WIND       PRES   REMARKS
WALLA WALLA    CLEAR     72  53  51 SW10      29.99R
PULLMAN/MOSCOW CLEAR     57  49  74 CALM      30.04R
LEWISTON       CLEAR     73  49  42 SW3       29.96R
LOWELL           N/A     61  56  83 NW3       30.04R

...COLUMBIA BASIN...

CITY           SKY/WX    TMP DP  RH WIND       PRES   REMARKS
EPHRATA        CLEAR     73  53  49 N10       29.99S
MOSES LAKE     CLEAR     66  53  63 N5        30.00S
TRI CITIES     CLEAR     69  57  65 NW3       29.96R
HERMISTON      CLEAR     63  55  75 SW3       29.98R
PENDLETON      CLEAR     65  47  52 S3        30.02R

...EAST SLOPES CASCADES...

CITY           SKY/WX    TMP DP  RH WIND       PRES   REMARKS
THE DALLES     CLEAR     68  57  68 NW8       29.99R
YAKIMA         CLEAR     69  53  56 W5        30.01S
ELLENSBURG     CLEAR     67  54  63 NW16G23   30.04R
STAMPEDE PASS  CLEAR     53  50  89 SW6       30.18S
WENATCHEE      CLEAR     71  56  58 NW13      30.03R
OMAK           CLEAR     64  55  72 NW10      30.05R

...SOUTHERN BRITISH COLUMBIA...

CITY           SKY/WX    TMP DP  RH WIND       PRES   REMARKS
PENTICTON      PTCLDY    61  54  77 N6        30.08R
CRANBROOK      MOCLDY    61  46  59 W6        30.12R

...WESTERN MONTANA...

CITY           SKY/WX    TMP DP  RH WIND       PRES   REMARKS
MISSOULA       CLEAR     58  51  78 CALM      30.11S

...NEIGHBORING CITIES...

CITY           SKY/WX    TMP DP  RH WIND       PRES   REMARKS
SEATTLE        CLEAR     58  57  97 CALM      30.12R
CALGARY        PTCLDY    59  54  82 VRB2      30.14S



USA.gov is the U.S. government's official web portal to all federal, state and local government web resources and services.